Terre Haute, IN

4:10 PM EST on December 09, 2019 (GMT -0500)
Terre Haute International-Hulman

Weather History for KHUF - October, 2019

Change the Weather History Date:

Wednesday, October 9, 2019

  Actual Average Record
Temperature  
Mean Temperature 58 °F 56 °F  
Max Temperature 75 °F 69 °F 85 °F (1980)
Min Temperature 41 °F 44 °F 27 °F (2000)
Degree Days  
Heating Degree Days 7 9  
Month to date heating degree days 32 72  
Since 1 July heating degree days 34 150  
Cooling Degree Days 0 1  
Month to date cooling degree days 34 9  
Year to date cooling degree days 1298 987  
Growing Degree Days 8 (Base 50)    
Moisture  
Dew Point 49 °F    
Average Humidity 72    
Maximum Humidity 100    
Minimum Humidity 43    
Precipitation  
Precipitation 0.00 in 0.12 in 0.96 in (1970)
Month to date precipitation 0.42 1.00  
Year to date precipitation 38.35 35.70  
Sea Level Pressure  
Sea Level Pressure 30.12 in    
Wind  
Wind Speed 4 mph (East)    
Max Wind Speed 13 mph    
Max Gust Speed 17 mph    
Visibility 10 miles    
Events      
T = Trace of Precipitation, MM = Missing Value Source: NWS Daily Summary

Daily Weather History Graph

Daily Weather History Graph

Search for Another Location

Airport or City:

Astronomy

Oct. 09, 2019 Rise Set
Actual Time 7:52 AM EDT 7:19 PM EDT
Civil Twilight 7:26 AM EDT 7:46 PM EDT
Nautical Twilight 6:54 AM EDT 8:17 PM EDT
Astronomical Twilight 6:23 AM EDT 8:48 PM EDT
Moon 5:49 PM EDT 3:40 AM EDT
Length of Visible Light 12h 20m
Length of Day
11h 26m
Waxing Gibbous, 85% of the Moon is Illuminated
Oct 9
Waxing Gibbous
Oct 13
Full
Oct 21
Last Quarter
Oct 27
New
Nov 4
First Quarter

Hourly Weather History & Observations

Time (EDT) Temp. Windchill Dew Point Humidity Pressure Visibility Wind Dir Wind Speed Gust Speed Precip Events Conditions
12:53 AM 46.0 °F - 44.1 °F 93% 30.14 in 10.0 mi Calm Calm - N/A   Clear
1:53 AM 48.0 °F - 44.1 °F 86% 30.12 in 10.0 mi Calm Calm - N/A   Clear
2:53 AM 45.0 °F 43.5 °F 43.0 °F 93% 30.13 in 10.0 mi NE 3.5 mph - N/A   Clear
3:53 AM 45.0 °F 43.5 °F 43.0 °F 93% 30.13 in 10.0 mi NE 3.5 mph - N/A   Clear
4:53 AM 44.1 °F 42.5 °F 42.1 °F 93% 30.13 in 10.0 mi NE 3.5 mph - N/A   Clear
5:53 AM 43.0 °F - 42.1 °F 97% 30.14 in 10.0 mi Calm Calm - N/A   Clear
6:53 AM 42.1 °F 40.2 °F 41.0 °F 96% 30.16 in 10.0 mi ENE 3.5 mph - N/A   Clear
7:53 AM 43.0 °F 41.3 °F 41.0 °F 93% 30.17 in 10.0 mi NE 3.5 mph - N/A   Clear
8:53 AM 50.0 °F - 46.0 °F 86% 30.18 in 10.0 mi NE 3.5 mph - N/A   Clear
9:53 AM 55.9 °F - 50.0 °F 80% 30.18 in 10.0 mi East 5.8 mph - N/A   Clear
10:53 AM 63.0 °F - 55.0 °F 75% 30.18 in 10.0 mi SE 6.9 mph - N/A   Clear
11:53 AM 68.0 °F - 54.0 °F 61% 30.17 in 10.0 mi ESE 8.1 mph - N/A   Clear
12:53 PM 70.0 °F - 50.0 °F 49% 30.16 in 10.0 mi Variable 5.8 mph - N/A   Clear
1:53 PM 73.0 °F - 50.0 °F 44% 30.13 in 10.0 mi SE 9.2 mph - N/A   Clear
2:53 PM 73.0 °F - 51.1 °F 46% 30.10 in 10.0 mi Variable 3.5 mph - N/A   Clear
3:53 PM 75.0 °F - 51.1 °F 43% 30.08 in 10.0 mi Variable 3.5 mph - N/A   Clear
4:53 PM 75.0 °F - 52.0 °F 44% 30.05 in 10.0 mi SE 9.2 mph - N/A   Clear
5:53 PM 73.0 °F - 52.0 °F 48% 30.06 in 10.0 mi SSE 5.8 mph - N/A   Clear
6:53 PM 68.0 °F - 53.1 °F 59% 30.07 in 10.0 mi East 4.6 mph - N/A   Clear
7:53 PM 60.1 °F - 53.1 °F 78% 30.08 in 10.0 mi Calm Calm - N/A   Clear
8:53 PM 57.9 °F - 53.1 °F 84% 30.09 in 10.0 mi Calm Calm - N/A   Clear
9:53 PM 55.0 °F - 52.0 °F 89% 30.09 in 10.0 mi Calm Calm - N/A   Clear
10:53 PM 59.0 °F - 54.0 °F 83% 30.08 in 10.0 mi SSE 4.6 mph - N/A   Clear
11:53 PM 59.0 °F - 54.0 °F 83% 30.09 in 10.0 mi SSE 4.6 mph - N/A   Clear